Flag for Canada Weather past 2 weeks in Miramichi, New Brunswick, Canada

Now
68 °F

More clouds than sun.


Feels Like: 68 °F
Forecast: 51 / 62 °F
Wind: 8 mph from Southwest

Location: Bathurst Airport

Current Time: May 4, 2015 at 10:13:24 PM

Latest Report: May 4, 2015 at 9:00 PM


Visibility: 15 mi

Pressure: 29.83 "Hg

Humidity: 35%

Dew point: 39 °F

Location of MiramichiLocation

Historic Weather in Miramichi — Graph

°F

Miramichi temperature yesterday

Maximum temperature yesterday: 61 °F (at 5:00 PM)
Minimum temperature yesterday: 27 °F (at 5:00 AM)
Average temperature yesterday: 43 °F

Past Weeks' High & Low Weather Summary

 TemperatureHumidityPressure
High79 °F (May 4, 5:00 PM)100% (Apr 21, 10:00 PM)30.36 "Hg (Apr 21, 10:00 PM)
Low21 °F (Apr 20, 4:00 AM)24% (May 4, 5:00 PM)29.52 "Hg (Apr 28, 3:00 PM)
Average37 °F84%29.84 "Hg
* Reported Apr 19 9:00 PM — May 4 9:00 PM, Miramichi, Weather by CustomWeather, © 2015

Note: Actual official high and low records may vary slightly from our data, if they occured in-between our weather recording intervals... More about our weather records

Advertising

Miramichi weather history for previous 24 hours

 ConditionsComfort  
Time TempWeatherWind HumidityBarometerVisibility
9:00 PM
Mon, May 4
68 °FMore clouds than sun.8 mph35%29.83 "Hg15 mi
8:00 PM73 °FPartly sunny.8 mph31%29.83 "Hg15 mi
7:00 PM77 °FPartly sunny.10 mph28%29.83 "Hg15 mi
6:00 PM77 °FPartly sunny.13 mph28%29.85 "Hg15 mi
5:00 PM79 °FScattered clouds.20 mph24%29.88 "Hg15 mi
4:00 PM73 °FPartly sunny.2 mph36%29.90 "Hg15 mi
3:00 PM63 °FOvercast.5 mph49%29.93 "Hg15 mi
2:00 PM61 °FOvercast.7 mph48%29.97 "Hg15 mi
1:00 PM63 °FPartly sunny.5 mph45%29.99 "Hg15 mi
12:00 PM55 °FScattered clouds.3 mph55%30.01 "Hg15 mi
11:00 AM54 °FPartly sunny.2 mph54%30.04 "Hg15 mi
10:00 AM48 °FPartly sunny.2 mph62%30.06 "Hg15 mi
9:00 AM45 °FBroken clouds.No wind66%30.07 "Hg15 mi
8:00 AM39 °FPartly sunny.2 mph81%30.07 "Hg15 mi
7:00 AM32 °FPassing clouds.2 mph93%30.08 "Hg15 mi
6:00 AM30 °FPassing clouds.2 mph93%30.07 "Hg15 mi
5:00 AM30 °FClear.2 mph93%30.08 "Hg15 mi
4:00 AM30 °FPassing clouds.No wind93%30.09 "Hg15 mi
3:00 AM30 °FPassing clouds.No wind93%30.09 "Hg15 mi
2:00 AM32 °FClear.2 mph93%30.10 "Hg15 mi
1:00 AM36 °FClear.2 mph87%30.11 "Hg15 mi
12:00 AM37 °FClear.5 mph81%30.10 "Hg15 mi
11:00 PM
Sun, May 3
41 °FClear.3 mph70%30.09 "Hg15 mi
10:00 PM46 °FClear.5 mph57%30.09 "Hg15 mi
Weather by CustomWeather, © 2015

See weather overviewHow to use our weather pages